Vorticity
nan nan nan nan nan nan nan nan nan nan nan nan nan nan nan nan nan nan nan nan nan nan nan nan nan nan nan nan nan nan nan nan nan nan nan nan nan nan nan nan nan nan nan
nan 5 5 6 6 3 5 7 6 8 7 5 6 5 5 6 8 7 6 6 6 5 7 6 5 5 5 6 5 6 6 6 5 5 2 3 6 4 4 1 10 9 nan
nan 5 7 7 8 4 4 6 5 6 6 6 6 7 8 7 7 8 6 6 7 6 6 6 6 6 6 7 5 5 6 5 6 6 0 4 6 5 4 5 12 5 nan
nan 4 9 8 7 4 3 6 5 5 6 6 6 7 8 7 5 6 7 6 5 6 8 6 7 7 6 5 5 5 6 6 6 3 3 5 6 7 5 6 4 6 nan
nan 4 8 10 6 4 4 5 6 5 6 7 7 6 7 7 7 6 6 6 7 8 6 6 6 6 5 6 5 4 4 4 4 5 6 6 4 11 4 6 5 6 nan
nan 7 4 8 6 6 5 5 6 5 7 8 6 7 7 7 7 6 7 5 6 7 6 6 6 5 6 6 5 4 3 5 2 5 8 4 11 12 4 4 4 6 nan
nan 6 6 4 6 5 7 7 5 5 6 7 5 6 7 6 6 8 7 8 6 4 5 5 5 5 5 7 6 5 5 3 3 3 8 5 15 5 7 4 5 5 nan
nan 5 5 6 6 7 6 6 6 5 6 5 6 7 6 7 6 6 7 7 5 5 4 5 6 5 5 5 4 4 7 12 10 5 5 7 9 6 5 6 6 4 nan
nan 7 6 6 5 6 8 7 5 6 6 4 5 6 7 5 5 5 5 6 6 5 6 5 5 6 7 5 5 4 8 11 10 10 7 7 5 6 6 8 7 4 nan
nan 5 6 8 8 9 6 7 9 6 5 4 6 6 5 5 5 5 7 5 5 6 7 8 7 6 6 6 6 6 6 9 8 9 8 9 5 4 7 9 7 7 nan
nan 6 6 6 6 7 7 10 6 7 6 5 6 6 5 5 9 3 3 5 5 6 6 8 9 7 5 7 7 6 7 9 9 6 7 7 5 6 5 8 8 10 nan
nan 4 5 6 7 5 5 6 6 7 6 6 7 3 6 5 2 7 9 6 5 6 6 6 6 6 6 5 6 5 7 6 8 8 10 9 1 2 8 10 6 7 nan
nan 5 5 5 6 5 7 3 7 6 7 8 8 5 8 8 7 6 5 9 8 6 8 9 3 0 5 7 7 7 6 6 6 8 12 12 6 4 6 6 9 3 nan
nan 6 5 6 6 5 5 6 7 7 6 7 8 7 5 7 6 8 5 8 8 7 8 6 6 8 9 7 5 4 6 6 6 8 13 14 9 5 3 4 9 5 nan
nan 8 7 5 6 6 5 7 6 7 7 8 7 8 3 6 7 7 7 3 7 9 7 6 6 6 9 9 10 8 8 7 7 6 13 14 8 7 6 7 8 5 nan
nan 10 9 6 7 5 6 6 6 7 8 7 7 8 5 4 7 4 7 6 7 6 5 7 5 6 8 8 8 9 9 10 9 8 9 11 13 8 8 9 8 6 nan
nan 9 8 7 7 6 7 7 6 7 8 6 8 7 6 7 3 4 7 6 7 7 8 8 7 7 6 8 8 10 10 10 8 8 6 10 16 15 9 7 7 8 nan
nan 7 6 8 8 8 6 6 6 8 6 7 7 8 9 6 4 6 6 7 7 7 9 7 8 7 6 10 10 8 8 11 10 9 9 9 7 13 15 14 10 8 nan
nan 7 7 8 7 6 6 5 7 7 5 7 7 8 9 6 6 6 6 8 7 9 7 8 9 9 7 6 8 9 11 10 10 9 8 11 11 8 12 15 14 13 nan
nan 7 7 7 8 5 4 5 7 6 7 7 7 8 7 7 7 7 6 7 8 8 7 7 6 8 9 9 6 11 10 11 13 8 8 11 12 10 8 9 15 17 nan
nan 7 7 7 6 5 6 7 6 6 7 7 8 9 7 8 9 7 7 9 9 4 8 7 9 5 6 12 9 9 14 12 9 6 10 10 11 9 9 10 8 11 nan
nan 7 7 7 6 4 4 7 7 8 8 9 8 8 8 8 9 7 7 8 8 7 8 7 8 8 8 7 11 9 12 9 2 9 10 8 7 12 13 10 10 9 nan
nan 8 7 8 6 6 4 6 6 6 9 10 7 8 8 8 9 8 7 7 6 7 8 10 7 6 9 8 6 9 7 8 9 9 6 6 6 8 11 14 18 13 nan
nan 9 9 9 7 7 7 4 6 4 8 7 8 8 9 9 8 9 8 8 5 5 9 10 6 6 7 5 11 8 5 6 10 6 8 10 10 8 8 12 14 16 nan
nan 9 11 10 8 8 7 5 6 5 5 8 8 10 10 7 10 10 8 8 7 8 7 6 9 7 7 6 5 6 9 12 9 4 6 10 9 10 8 11 12 14 nan
nan nan nan nan nan nan nan nan nan nan nan nan nan nan nan nan nan nan nan nan nan nan nan nan nan nan nan nan nan nan nan nan nan nan nan nan nan nan nan nan nan nan nan
CAPE
0 117 1008 1266 1061 1339 1145 1426 1477 1480 1698 1833 1740 1572 1367 1473 1770 1660 1570 1776 1597 1037 1509 1675 1746 1841 1668 1887 2034 1937 1881 1850 1902 1871 1775 1775 2049 2041 1938 1532 1814 1337 2000
0 102 1115 1551 1387 1552 1286 1257 1732 1598 1702 1687 1681 1754 1816 1598 1609 1542 1438 1607 1569 854 1558 1550 1645 1726 1743 1683 1781 1841 1678 1436 1300 1884 1440 1524 1201 1522 1609 1435 1143 1796 1830
0 230 1265 1973 1977 1721 1344 1669 1564 1796 1685 1531 1521 1543 1526 1503 1622 1582 1774 1181 641 998 1733 1785 1692 1548 1483 1822 1513 1145 1072 1340 1398 1584 1534 615 958 1524 972 1074 1586 1461 1565
3 220 971 2413 2462 1678 1717 1741 1664 1584 1497 1306 1540 1678 1498 1523 1541 1163 1229 1017 1147 1455 1602 1770 1541 1516 1472 1123 1322 1747 1428 1350 1384 1225 1397 583 341 1399 1333 1372 1508 1589 1445
100 362 2081 2129 2417 1945 1663 1742 1572 1602 1458 1522 1641 1463 1502 1717 1675 1214 558 1704 1514 1572 1789 1603 1555 1608 1507 1074 907 1555 1142 849 941 1184 652 527 615 1084 1423 1447 1389 1613 1488
299 564 1883 2387 2170 1963 2052 1561 1686 1578 1250 1333 1600 1542 1711 1697 1689 1523 1023 1822 1636 1760 1567 1358 1294 1350 1296 1392 1419 1133 1055 1282 1251 618 724 894 1146 1383 1507 1410 1078 1408 1434
395 753 1435 2046 1976 1919 1804 1723 1805 1566 1738 1570 1170 1475 1644 1728 1857 1614 1395 1297 1648 1404 1255 1192 1438 1252 1147 1108 1003 815 882 833 994 1241 746 685 706 1505 1468 1330 1361 1382 1315
522 739 1256 2085 2134 2112 1755 1953 1583 1863 1512 1468 1602 1822 1630 1533 1695 1745 1484 1362 1532 1499 1353 1202 1265 1143 1019 951 799 819 962 1001 859 931 1096 567 1331 1166 1149 907 1277 1412 1274
588 868 1162 1255 1898 2206 1490 1888 1816 1771 1439 1086 1579 1628 1576 1682 1683 1535 1499 1382 1458 1294 1145 1206 1262 1208 1052 948 676 686 662 685 712 1113 916 603 1100 1125 1174 1114 756 750 1389
661 1022 1120 948 1273 1831 1450 1829 1870 2000 1498 1518 1609 1572 1793 1810 1522 1513 1497 1379 1384 1391 1442 1266 1122 1355 1241 1057 902 730 508 476 708 493 953 983 536 703 1253 1366 1085 1111 791
741 900 1087 1288 1503 1891 1942 1870 1924 1868 1674 1362 1805 1343 1340 1361 1622 1569 1373 1365 1339 1367 1098 1356 1270 1321 1246 1043 919 231 327 569 797 1140 839 445 254 126 483 827 739 1112 1121
710 799 993 1044 976 1205 695 1540 1808 1314 1029 874 1156 957 824 884 1250 1251 1293 1612 1735 1556 1417 1200 1267 939 845 225 367 880 1002 950 614 1074 1201 232 164 1 161 421 399 371 739
568 605 767 988 1112 814 852 1595 1309 1200 1079 1107 1479 1108 939 664 666 754 734 848 1239 1726 1199 1346 1497 1006 804 794 404 278 367 915 526 399 470 701 253 79 215 401 272 157 428
519 555 524 915 1294 889 998 921 654 785 762 778 1153 1238 1198 1075 823 711 475 705 851 698 611 1034 972 1050 1220 1224 1230 857 852 669 663 901 618 509 420 331 263 244 457 250 236
309 414 470 744 1443 1200 1367 833 642 647 804 846 1402 1243 1276 1542 1757 2074 2073 1946 2212 1588 1492 1628 1680 1791 1888 1799 1755 1725 1749 1375 1392 1330 1148 697 477 594 507 347 402 272 299
501 441 446 717 1250 949 1058 1079 659 650 721 856 1106 1290 1989 1836 1907 1763 1772 1764 1772 1729 1777 1749 1749 1916 2047 1759 1726 1636 1850 1798 1828 1817 2125 1612 784 534 548 637 498 215 283
750 314 378 526 658 784 820 1056 660 763 1064 1233 1260 1594 1974 1980 2304 2288 1942 1910 1753 1885 2173 2228 2384 2087 2302 1577 1876 1610 1748 1998 2103 2161 1899 1845 1852 969 849 696 1052 542 292
886 891 324 171 329 564 637 903 800 914 972 1169 1263 1497 1998 2266 2484 2602 2124 1861 1661 1956 1740 1781 1835 1931 1601 1742 1990 2073 1578 1650 1717 2085 1993 1645 1731 1591 1233 920 1398 552 647
925 1103 1060 276 479 934 1346 1471 1638 1771 1800 1875 1800 1762 2182 2438 2541 2859 2259 1994 2190 1998 1707 1684 1696 2074 2231 1772 1598 1504 1710 1940 2016 1759 1708 2206 2159 1847 1760 1166 1217 1420 935
1072 1134 1375 728 880 1448 1749 1930 1742 1669 1771 1815 1988 1973 2250 2518 2728 2831 2266 2334 2348 2257 2071 1840 2351 2150 2338 2075 1715 1699 1729 1512 1590 1669 1937 1653 1614 2125 1941 1788 1570 1269 1519
1109 1265 1403 1433 1323 1740 1715 1787 1678 1600 1698 1743 1759 2095 2581 2697 2705 3159 2459 2332 2723 2466 2313 2663 2526 2121 2259 2139 1992 1423 1410 1302 1347 1503 1324 1486 1451 1561 1584 1770 1739 2204 2116
1077 1291 1534 1696 1989 1908 1529 1591 1470 1485 1379 1438 1405 1769 2500 2710 2764 2786 3089 2324 2542 2149 2735 2796 2683 2622 1985 2489 2600 1986 1241 1474 1086 1030 1331 1337 1326 1323 1254 1588 1298 1359 1756
1018 1247 1561 1808 1997 2354 1760 1758 1854 1895 1896 1705 1680 1740 1753 2460 2853 2805 2886 2688 2629 2862 2136 2567 2637 2836 2567 2572 2349 1195 633 617 984 2501 1453 1337 1501 1299 915 947 1230 1184 1275
985 1100 1439 1901 1913 2200 2365 2219 2265 1824 1536 1408 1467 937 1071 2098 2628 2734 2987 3083 3177 2810 2928 2362 2887 3201 3005 2731 2338 3107 2119 1837 1293 988 479 554 862 1156 803 1024 941 1374 988
786 980 1222 1758 2071 1990 2270 2781 2116 2181 1605 1717 1600 1353 1811 1959 2855 2583 2832 3127 3436 3366 3010 3731 3476 3484 3511 4022 3577 2482 2675 2771 2019 1572 1192 962 890 987 630 904 1455 1421 1399
734 943 1127 1645 2104 2116 2227 2506 2706 2458 2185 1730 1836 1597 1419 1498 1830 2901 2731 3322 3491 3345 3674 3312 3634 3894 3442 3169 3751 3337 2971 2505 2101 1795 1011 922 1074 1175 1041 584 1146 1372 1483